"startDT [UTC]","vpos","CH4 [ppm]","stdev(CH4) [ppm]","CO2 [ppm]","stdev(CO2) [ppm]","H2O_reported [%]","stdev(H2O_reported)","CavityPressure [torr]","CavityTemp [C]","OutletValve","CH4_dry [ppm]","CO2_dry [ppm]","DasTemp [C]","EtalonTemp [C]","WarmBoxTemp [C]","MPVPosition","T_ECpre [C]","T_EC1 [C]","T_EC2 [C]","p_inlet [hPa]","p_in [hPa]","p_out [hPa]","T_inlet [C]","RH_inlet [%]","dwpt_inlet [C]","T_vent [C]","RH_vent [%]","dwpt_vent [C]","flow_vent [l min-1]","flow_inlet [l min-1]","dwpt_sample [C]","T_room [C]"
2015-04-27 00:00:00,0.0,1.92624,0.00028,404.709,0.029,0.2009,0.0023,140.002,45.000,34090.39242,1.93007,405.692,32.498,45.068,45.000,0.00,0.09,-272.72,-272.78,-1,964,-1,21.0,6.0,-18.0,20.5,6.2,-17.9,5.73,2.01,-15.4,25.1
2015-04-27 00:01:00,0.0,1.92617,0.00034,404.726,0.026,0.2007,0.0019,139.998,45.000,34090.83752,1.93001,405.707,32.500,45.068,45.000,0.00,0.09,-272.72,-272.78,-1,965,-1,21.0,6.0,-18.0,20.5,6.2,-17.8,5.73,2.01,-15.4,25.1
2015-04-27 00:02:00,0.0,1.92576,0.00039,404.727,0.033,0.2001,0.0024,139.997,45.000,34091.36196,1.92958,405.705,32.505,45.068,45.000,0.00,0.09,-272.72,-272.78,-1,965,-1,21.0,6.0,-18.1,20.6,6.2,-17.8,5.73,1.94,-15.4,25.1
2015-04-27 00:03:00,0.0,1.92591,0.00029,404.713,0.028,0.1977,0.0017,140.001,45.000,34092.82068,1.92966,405.681,32.532,45.068,45.000,0.00,0.09,-272.71,-272.77,-2,966,-1,21.0,5.9,-18.1,20.6,6.2,-17.9,5.73,1.90,-15.4,25.1
2015-04-27 00:04:00,0.0,1.92555,0.00036,404.685,0.038,0.2009,0.0022,139.999,45.000,34095.35133,1.92940,405.669,32.541,45.068,45.000,0.00,0.09,-272.72,-272.78,-1,965,-1,21.0,6.0,-18.0,20.6,6.2,-17.9,5.73,1.94,-15.4,25.1
2015-04-27 00:05:00,0.0,1.92554,0.00044,404.651,0.036,0.2008,0.0021,139.999,45.000,34096.42796,1.92933,405.632,32.557,45.068,45.000,0.00,0.09,-272.73,-272.78,-1,966,-1,21.0,6.0,-17.9,20.6,6.3,-17.7,5.73,2.01,-15.4,25.1
2015-04-27 00:06:00,0.0,1.92584,0.00043,404.678,0.025,0.1993,0.0016,140.000,45.000,34094.82469,1.92964,405.652,32.561,45.068,45.000,0.00,0.09,-272.72,-272.77,-1,966,-1,21.0,5.9,-18.1,20.6,6.2,-17.9,5.73,2.02,-15.4,25.1
2015-04-27 00:07:00,0.0,1.92601,0.00030,404.694,0.034,0.1988,0.0013,139.999,45.000,34094.86084,1.92981,405.665,32.558,45.068,45.000,0.00,0.09,-272.72,-272.78,-1,966,-1,21.0,5.9,-18.1,20.6,6.2,-17.9,5.73,1.95,-15.4,25.1
2015-04-27 00:08:00,0.0,1.92585,0.00034,404.701,0.029,0.2009,0.0020,140.004,45.000,34094.94181,1.92968,405.685,32.554,45.068,45.000,0.00,0.09,-272.72,-272.78,-2,966,-1,21.0,6.0,-18.0,20.6,6.2,-17.9,5.73,1.90,-15.4,25.1
2015-04-27 00:09:00,0.0,1.92578,0.00043,404.692,0.023,0.2001,0.0017,139.995,45.000,34093.38550,1.92960,405.670,32.563,45.068,45.000,0.00,0.09,-272.72,-272.78,-2,966,-1,21.1,6.0,-17.9,20.6,6.2,-17.8,5.73,1.94,-15.4,25.1
2015-04-27 00:10:00,0.0,1.92592,0.00052,404.664,0.036,0.2023,0.0018,140.001,45.000,34095.96179,1.92969,405.652,32.552,45.068,45.000,0.00,0.09,-272.73,-272.77,-2,965,-1,21.1,6.0,-17.9,20.6,6.3,-17.7,5.73,2.00,-15.4,25.2
2015-04-27 00:11:00,0.0,1.92585,0.00036,404.675,0.016,0.2029,0.0015,140.002,45.000,34094.93774,1.92979,405.668,32.562,45.068,45.000,0.00,0.09,-272.72,-272.78,-2,965,-1,21.1,6.0,-17.8,20.6,6.3,-17.7,5.73,2.02,-15.3,25.2
2015-04-27 00:12:00,0.0,1.92557,0.00033,404.653,0.024,0.2009,0.0016,139.994,45.000,34093.46055,1.92940,405.636,32.563,45.068,45.000,0.00,0.09,-272.72,-272.78,-2,965,-1,21.1,6.0,-17.9,20.6,6.3,-17.7,5.73,1.98,-15.3,25.2
2015-04-27 00:13:00,0.0,1.92564,0.00028,404.707,0.024,0.2004,0.0018,140.001,45.000,34095.21630,1.92943,405.687,32.563,45.068,45.000,0.00,0.09,-272.72,-272.77,-1,964,-1,21.1,5.9,-18.0,20.6,6.2,-17.8,5.73,1.91,-15.3,25.1
2015-04-27 00:14:00,0.0,1.92544,0.00039,404.686,0.030,0.1980,0.0019,140.002,45.000,34098.12030,1.92923,405.656,32.562,45.068,45.000,0.00,0.09,-272.72,-272.77,-1,964,-1,21.1,5.9,-18.2,20.6,6.1,-17.9,5.73,1.92,-15.3,25.1
2015-04-27 00:15:00,0.0,1.92570,0.00040,404.679,0.031,0.1991,0.0019,139.997,45.000,34094.34120,1.92948,405.651,32.561,45.068,45.000,0.00,0.09,-272.73,-272.78,-1,964,-1,21.1,5.9,-18.1,20.7,6.1,-17.9,5.73,1.99,-15.3,25.1
2015-04-27 00:16:00,0.0,1.92556,0.00031,404.701,0.033,0.1977,0.0024,139.999,45.000,34094.81350,1.92932,405.668,32.560,45.068,45.000,0.00,0.09,-272.72,-272.77,-2,965,-1,21.1,5.9,-18.2,20.7,6.1,-17.9,5.73,2.02,-14.2,25.1
2015-04-27 00:17:00,0.0,1.92587,0.00041,404.681,0.024,0.1976,0.0018,140.000,45.000,34094.80936,1.92964,405.647,32.552,45.068,45.000,0.00,0.09,-272.68,-272.78,-2,965,-1,21.1,5.8,-18.2,20.7,6.1,-18.0,5.73,2.00,-14.3,25.1
2015-04-27 00:18:00,0.0,1.92586,0.00026,404.679,0.036,0.1976,0.0014,139.996,45.000,34095.02152,1.92960,405.646,32.545,45.068,45.000,0.00,0.09,-272.72,-272.78,-2,964,-1,21.1,5.8,-18.2,20.7,6.1,-18.0,5.73,1.94,-14.4,25.1
2015-04-27 00:19:00,0.0,1.92557,0.00041,404.691,0.031,0.1955,0.0020,140.001,45.000,34097.81679,1.92930,405.646,32.541,45.069,45.000,0.00,0.09,-272.72,-272.78,-2,965,-1,21.1,5.8,-18.3,20.7,6.1,-18.1,5.73,1.92,-14.4,25.1
2015-04-27 00:20:00,0.0,1.92606,0.00044,404.690,0.028,0.1939,0.0024,140.000,45.000,34096.39846,1.92975,405.637,32.554,45.069,45.000,0.00,0.09,-272.72,-272.78,-2,965,-1,21.1,5.7,-18.4,20.7,6.0,-18.2,5.73,1.94,-14.5,25.1
2015-04-27 00:21:00,0.0,1.92583,0.00024,404.719,0.026,0.1932,0.0014,140.001,45.000,34098.32296,1.92954,405.664,32.562,45.069,45.000,0.00,0.09,-272.72,-272.77,-2,965,-1,21.1,5.7,-18.4,20.7,6.0,-18.2,5.73,2.00,-14.5,25.1
2015-04-27 00:22:00,0.0,1.92585,0.00028,404.719,0.039,0.1945,0.0017,139.996,45.000,34094.31940,1.92954,405.670,32.540,45.068,45.000,0.00,0.09,-272.73,-272.77,-1,965,-1,21.1,5.7,-18.4,20.7,6.0,-18.2,5.73,2.02,-14.7,25.2
2015-04-27 00:23:00,0.0,1.92609,0.00028,404.714,0.028,0.1929,0.0014,140.000,45.000,34094.69296,1.92976,405.657,32.556,45.069,45.000,0.00,0.09,-272.72,-272.78,-2,965,-1,21.1,5.7,-18.5,20.7,6.0,-18.2,5.73,1.99,-14.7,25.2
2015-04-27 00:24:00,0.0,1.92581,0.00033,404.725,0.027,0.1922,0.0012,140.002,45.000,34097.18736,1.92948,405.665,32.560,45.068,45.000,0.00,0.09,-272.71,-272.77,-2,965,-1,21.2,5.7,-18.5,20.7,5.9,-18.3,5.73,1.93,-14.7,25.2
2015-04-27 00:25:00,0.0,1.92595,0.00041,404.716,0.029,0.1917,0.0015,139.998,45.000,34096.19830,1.92959,405.652,32.563,45.068,45.000,0.00,0.09,-272.72,-272.78,-2,965,-1,21.2,5.6,-18.6,20.7,5.9,-18.4,5.73,1.91,-14.7,25.2
2015-04-27 00:26:00,0.0,1.92590,0.00029,404.730,0.025,0.1919,0.0020,140.000,45.000,34098.34687,1.92954,405.669,32.563,45.068,45.000,0.00,0.09,-272.72,-272.77,-2,966,-1,21.1,5.7,-18.6,20.7,5.9,-18.3,5.73,1.97,-14.7,25.2
2015-04-27 00:27:00,0.0,1.92582,0.00034,404.754,0.039,0.1894,0.0015,140.002,45.000,34098.04810,1.92946,405.681,32.560,45.068,45.000,0.00,0.09,-272.72,-272.76,-2,965,-1,21.2,5.6,-18.7,20.7,5.9,-18.4,5.73,2.02,-14.8,25.2
2015-04-27 00:28:00,0.0,1.92600,0.00035,404.728,0.028,0.1887,0.0021,139.999,45.000,34098.03279,1.92957,405.649,32.561,45.068,45.000,0.00,0.09,-272.72,-272.78,-2,965,-1,21.2,5.5,-18.7,20.7,5.8,-18.5,5.73,2.01,-14.8,25.2
2015-04-27 00:29:00,0.0,1.92609,0.00040,404.742,0.035,0.1904,0.0018,140.000,45.000,34098.48760,1.92972,405.672,32.563,45.068,45.000,0.00,0.09,-272.72,-272.78,-2,965,-1,21.2,5.6,-18.7,20.7,5.8,-18.5,5.73,1.96,-14.8,25.2
2015-04-27 00:30:00,0.0,1.92606,0.00032,404.743,0.027,0.1890,0.0009,139.997,45.000,34098.34296,1.92967,405.668,32.564,45.068,45.000,0.00,0.09,-272.71,-272.77,-2,965,-1,21.2,5.6,-18.7,20.8,5.8,-18.5,5.73,1.91,-14.8,25.2
2015-04-27 00:31:00,0.0,1.92604,0.00035,404.743,0.036,0.1876,0.0024,140.000,45.000,34100.70439,1.92958,405.660,32.565,45.068,45.000,0.00,0.09,-272.72,-272.78,-2,966,-1,21.2,5.5,-18.9,20.8,5.8,-18.6,5.73,1.93,-14.8,25.2
2015-04-27 00:32:00,0.0,1.92596,0.00029,404.743,0.032,0.1880,0.0016,139.999,45.000,34100.51524,1.92956,405.663,32.565,45.068,45.000,0.00,0.09,-272.72,-272.78,-2,966,-1,21.2,5.5,-18.9,20.8,5.8,-18.6,5.73,1.98,-14.9,25.2
2015-04-27 00:33:00,0.0,1.92599,0.00043,404.742,0.032,0.1858,0.0016,140.000,45.000,34100.26293,1.92954,405.650,32.573,45.068,45.000,0.00,0.09,-272.72,-272.77,-2,966,-1,21.2,5.4,-19.0,20.8,5.7,-18.7,5.73,2.02,-14.9,25.2
2015-04-27 00:34:00,0.0,1.92599,0.00042,404.742,0.029,0.1858,0.0019,140.001,45.000,34101.37495,1.92953,405.649,32.601,45.068,45.000,0.00,0.09,-272.72,-272.77,-2,965,-1,21.2,5.4,-19.0,20.8,5.7,-18.7,5.73,2.00,-14.9,25.3
2015-04-27 00:35:00,0.0,1.92589,0.00037,404.746,0.034,0.1851,0.0023,140.000,45.000,34101.64284,1.92939,405.651,32.599,45.068,45.000,0.00,0.09,-272.72,-272.78,-2,966,-1,21.2,5.4,-19.0,20.8,5.7,-18.7,5.73,1.94,-14.9,25.3
2015-04-27 00:36:00,0.0,1.92579,0.00040,404.761,0.028,0.1847,0.0029,139.998,45.000,34102.87911,1.92931,405.663,32.608,45.068,45.000,0.00,0.09,-272.72,-272.78,-2,966,-1,21.2,5.4,-19.1,20.8,5.7,-18.8,5.73,1.90,-14.9,25.3
2015-04-27 00:37:00,0.0,1.92561,0.00033,404.748,0.035,0.1845,0.0015,139.999,45.000,34104.25922,1.92912,405.650,32.624,45.068,45.000,0.00,0.09,-272.72,-272.77,-2,966,-1,21.2,5.4,-19.1,20.8,5.7,-18.8,5.73,1.97,-14.9,25.3
2015-04-27 00:38:00,0.0,1.92580,0.00034,404.746,0.034,0.1824,0.0021,140.000,45.000,34105.62508,1.92925,405.638,32.625,45.068,45.000,0.00,0.09,-272.71,-272.77,-2,966,-1,21.2,5.3,-19.2,20.8,5.6,-18.9,5.73,2.01,-14.9,25.3
2015-04-27 00:39:00,0.0,1.92608,0.00033,404.750,0.023,0.1819,0.0016,140.002,45.000,34106.90477,1.92958,405.640,32.624,45.068,45.000,0.00,0.08,-272.74,-272.82,-2,966,-1,21.3,5.3,-19.3,20.8,5.5,-19.0,5.73,2.02,-14.9,25.3
2015-04-27 00:40:00,0.0,1.92585,0.00029,404.741,0.026,0.1826,0.0017,139.997,45.000,34107.13498,1.92932,405.633,32.621,45.068,45.000,0.00,0.09,-272.71,-272.77,-2,966,-1,21.3,5.3,-19.2,20.8,5.6,-19.0,5.73,1.97,-14.9,25.2
2015-04-27 00:41:00,0.0,1.92567,0.00032,404.768,0.040,0.1825,0.0015,140.001,45.000,34108.80308,1.92913,405.660,32.622,45.068,45.000,0.00,0.09,-272.72,-272.77,-2,966,-1,21.3,5.3,-19.2,20.8,5.6,-19.0,5.73,1.92,-14.9,25.2
2015-04-27 00:42:00,0.0,1.92592,0.00027,404.769,0.032,0.1810,0.0016,140.001,45.000,34108.07250,1.92936,405.653,32.600,45.068,45.000,0.00,0.09,-272.73,-272.78,-2,968,-1,21.3,5.3,-19.3,20.9,5.5,-19.0,5.73,1.92,-14.9,25.2
2015-04-27 00:43:00,0.0,1.92595,0.00034,404.776,0.020,0.1818,0.0021,140.002,45.000,34108.05337,1.92942,405.664,32.567,45.068,45.000,0.00,0.09,-272.72,-272.78,-2,968,-1,21.3,5.3,-19.3,20.9,5.5,-19.0,5.73,1.96,-14.8,25.3
2015-04-27 00:44:00,0.0,1.92614,0.00036,404.777,0.026,0.1814,0.0018,140.000,45.000,34106.54701,1.92955,405.663,32.562,45.069,45.000,0.00,0.09,-272.71,-272.77,-2,968,-1,21.3,5.3,-19.2,20.9,5.5,-19.0,5.73,2.00,-14.9,25.3
2015-04-27 00:45:00,0.0,1.92577,0.00037,404.773,0.032,0.1814,0.0016,140.000,45.000,34109.35879,1.92926,405.661,32.519,45.069,45.000,0.00,0.09,-272.72,-272.78,-2,967,-1,21.3,5.2,-19.3,20.9,5.5,-19.0,5.73,2.00,-14.9,25.3
2015-04-27 00:46:00,0.0,1.92606,0.00035,404.759,0.042,0.1813,0.0015,139.999,45.000,34111.16710,1.92949,405.643,32.499,45.069,45.001,0.00,0.09,-272.72,-272.78,-2,967,-1,21.4,5.2,-19.3,20.9,5.5,-19.0,5.73,1.99,-14.9,25.4
2015-04-27 00:47:00,0.0,1.92605,0.00024,404.774,0.046,0.1825,0.0019,140.001,45.000,34112.83138,1.92953,405.666,32.445,45.069,45.001,0.00,0.09,-272.71,-272.77,-2,969,-1,21.3,5.3,-19.2,20.9,5.5,-18.9,5.73,1.97,-14.9,25.4
2015-04-27 00:48:00,0.0,1.92615,0.00040,404.798,0.030,0.1803,0.0020,139.999,45.000,34112.99819,1.92958,405.681,32.391,45.069,45.001,0.00,0.09,-272.72,-272.77,-2,969,-1,21.4,5.2,-19.4,20.9,5.5,-19.0,5.73,1.96,-14.9,25.4
2015-04-27 00:49:00,0.0,1.92616,0.00042,404.804,0.037,0.1781,0.0016,140.000,45.000,34116.57734,1.92957,405.675,32.317,45.069,45.000,0.00,0.09,-272.73,-272.78,-2,970,-1,21.4,5.1,-19.5,21.0,5.4,-19.2,5.73,1.96,-14.9,25.5
2015-04-27 00:50:00,0.0,1.92618,0.00036,404.803,0.034,0.1767,0.0016,140.000,44.999,34116.79657,1.92952,405.667,32.231,45.069,45.000,0.00,0.09,-272.72,-272.77,-3,971,-1,21.4,5.1,-19.6,21.0,5.4,-19.3,5.73,1.97,-14.9,25.5
2015-04-27 00:51:00,0.0,1.92636,0.00031,404.796,0.036,0.1766,0.0017,140.000,44.999,34117.67384,1.92970,405.660,32.144,45.069,45.000,0.00,0.09,-272.71,-272.78,-3,971,-1,21.4,5.1,-19.6,21.0,5.4,-19.3,5.73,1.96,-14.9,25.6
2015-04-27 00:52:00,0.0,1.92620,0.00041,404.808,0.030,0.1756,0.0018,140.001,44.999,34119.28558,1.92957,405.666,32.071,45.069,45.001,0.00,0.09,-272.72,-272.78,-3,972,-1,21.4,5.1,-19.6,21.0,5.3,-19.4,5.73,1.97,-14.9,25.6
2015-04-27 00:53:00,0.0,1.92591,0.00037,404.789,0.042,0.1752,0.0017,140.002,44.999,34121.40959,1.92926,405.645,31.995,45.069,45.001,0.00,0.09,-272.72,-272.77,-3,972,-1,21.4,5.1,-19.6,21.0,5.3,-19.3,5.73,1.97,-14.9,25.6
2015-04-27 00:54:00,0.0,1.92592,0.00023,404.802,0.038,0.1764,0.0013,139.998,44.999,34121.72106,1.92927,405.664,31.945,45.069,45.001,0.00,0.09,-272.72,-272.77,-3,973,-1,21.4,5.1,-19.6,21.0,5.3,-19.4,5.73,1.96,-14.9,25.7
2015-04-27 00:55:00,0.0,1.92585,0.00035,404.805,0.017,0.1745,0.0021,140.001,44.999,34123.59035,1.92919,405.659,31.894,45.069,45.001,0.00,0.09,-272.71,-272.78,-3,973,-1,21.4,5.1,-19.7,21.0,5.3,-19.4,5.73,1.96,-14.9,25.7
2015-04-27 00:56:00,0.0,1.92592,0.00036,404.802,0.038,0.1748,0.0016,139.998,44.999,34120.68243,1.92921,405.656,31.871,45.069,45.001,0.00,0.09,-272.72,-272.78,-3,974,-1,21.4,5.0,-19.8,21.0,5.3,-19.5,5.73,1.95,-14.9,25.7
2015-04-27 00:57:00,0.0,1.92624,0.00039,404.837,0.028,0.1716,0.0021,139.999,45.000,34117.89512,1.92950,405.675,31.840,45.069,45.000,0.00,0.09,-272.71,-272.77,-3,974,-1,21.4,5.0,-19.9,21.0,5.2,-19.6,5.73,1.95,-14.9,25.7
2015-04-27 00:58:00,0.0,1.92632,0.00043,404.854,0.022,0.1706,0.0011,140.000,45.000,34120.09554,1.92957,405.687,31.813,45.069,45.000,0.00,0.09,-272.72,-272.78,-3,974,-1,21.3,4.9,-20.0,21.0,5.1,-19.8,5.73,1.95,-14.9,25.6
2015-04-27 00:59:00,0.0,1.92620,0.00037,404.824,0.031,0.1714,0.0016,139.998,45.000,34118.71790,1.92949,405.662,31.794,45.069,45.000,0.00,0.09,-272.72,-272.78,-3,974,-1,21.3,4.9,-20.0,20.9,5.2,-19.8,5.73,1.95,-14.9,25.5
2015-04-27 01:00:00,0.0,1.92611,0.00039,404.873,0.035,0.1708,0.0013,139.998,45.000,34119.19060,1.92937,405.706,31.785,45.069,45.000,0.00,0.09,-272.72,-272.77,-4,974,-1,21.3,4.9,-20.0,20.9,5.2,-19.8,5.73,1.96,-14.9,25.5
2015-04-27 01:01:00,0.0,1.92597,0.00032,404.843,0.041,0.1698,0.0019,139.999,45.000,34119.38825,1.92918,405.674,31.813,45.069,45.000,0.00,0.09,-272.72,-272.77,-3,974,-1,21.3,4.9,-20.1,20.9,5.1,-19.8,5.73,1.98,-14.9,25.4
2015-04-27 01:02:00,0.0,1.92588,0.00035,404.870,0.024,0.1681,0.0016,140.001,45.000,34119.20599,1.92910,405.691,31.869,45.068,45.000,0.00,0.09,-272.73,-272.78,-3,974,-1,21.3,4.9,-20.1,20.9,5.1,-19.9,5.73,1.98,-14.9,25.4
2015-04-27 01:03:00,0.0,1.92591,0.00035,404.843,0.031,0.1700,0.0011,140.002,45.000,34120.56789,1.92913,405.675,31.933,45.068,45.000,0.00,0.09,-272.72,-272.77,-3,972,-1,21.3,4.9,-20.0,20.9,5.1,-19.8,5.73,1.97,-14.9,25.3
2015-04-27 01:04:00,0.0,1.92587,0.00032,404.848,0.028,0.1718,0.0022,139.999,45.000,34118.74380,1.92914,405.686,31.989,45.068,45.000,0.00,0.09,-272.71,-272.77,-3,972,-1,21.3,5.0,-19.9,20.9,5.2,-19.7,5.73,1.96,-14.9,25.3
2015-04-27 01:05:00,0.0,1.92585,0.00031,404.836,0.035,0.1741,0.0012,139.999,45.001,34119.26162,1.92916,405.685,32.059,45.068,44.999,0.00,0.09,-272.72,-272.77,-3,972,-1,21.3,5.0,-19.8,20.9,5.2,-19.6,5.73,1.94,-14.9,25.3
2015-04-27 01:06:00,0.0,1.92638,0.00045,404.895,0.029,0.1716,0.0018,139.999,45.001,34117.55481,1.92961,405.735,32.127,45.068,44.999,0.00,0.09,-272.72,-272.77,-3,971,-1,21.3,5.0,-20.0,20.9,5.2,-19.6,5.73,1.93,-14.9,25.2
2015-04-27 01:07:00,0.0,1.92645,0.00034,404.878,0.038,0.1703,0.0020,139.999,45.001,34117.27154,1.92970,405.709,32.184,45.068,44.999,0.00,0.09,-272.72,-272.78,-3,971,-1,21.3,4.9,-20.0,20.9,5.2,-19.8,5.73,1.93,-14.9,25.3
2015-04-27 01:08:00,0.0,1.92631,0.00035,404.855,0.037,0.1713,0.0010,139.998,45.001,34118.66088,1.92959,405.693,32.244,45.067,44.999,0.00,0.09,-272.72,-272.77,-3,971,-1,21.3,5.0,-20.0,20.9,5.2,-19.7,5.73,1.95,-14.9,25.3
2015-04-27 01:09:00,0.0,1.92624,0.00033,404.897,0.035,0.1730,0.0025,140.004,45.001,34119.50886,1.92950,405.743,32.295,45.067,44.999,0.00,0.09,-272.72,-272.78,-2,970,-1,21.3,5.0,-19.9,20.9,5.2,-19.6,5.73,1.97,-14.9,25.3
2015-04-27 01:10:00,0.0,1.92630,0.00029,404.902,0.033,0.1705,0.0015,140.001,45.001,34118.96886,1.92956,405.734,32.328,45.067,44.999,0.00,0.09,-272.72,-272.77,-3,969,-1,21.3,5.0,-20.0,20.9,5.2,-19.7,5.73,2.01,-14.9,25.3
2015-04-27 01:11:00,0.0,1.92629,0.00032,404.899,0.022,0.1704,0.0021,139.997,45.001,34118.02282,1.92954,405.733,32.367,45.068,44.999,0.00,0.09,-272.72,-272.77,-3,969,-1,21.3,4.9,-20.1,20.9,5.1,-19.8,5.73,2.00,-14.9,25.3
2015-04-27 01:12:00,0.0,1.92628,0.00035,404.907,0.042,0.1694,0.0011,140.000,45.001,34120.52117,1.92950,405.735,32.391,45.068,44.999,0.00,0.09,-272.71,-272.78,-3,969,-1,21.3,4.9,-20.1,20.9,5.1,-19.8,5.73,1.97,-14.9,25.3
2015-04-27 01:13:00,0.0,1.92639,0.00034,404.925,0.028,0.1690,0.0021,140.001,45.001,34118.36013,1.92960,405.750,32.449,45.068,45.000,0.00,0.09,-272.72,-272.78,-3,970,-1,21.3,4.9,-20.1,20.9,5.1,-19.9,5.73,1.92,-14.9,25.4
2015-04-27 01:14:00,0.0,1.92657,0.00023,404.928,0.033,0.1676,0.0014,140.001,45.001,34117.24100,1.92976,405.747,32.497,45.068,45.000,0.00,0.09,-272.71,-272.77,-3,970,-1,21.3,4.9,-20.1,20.9,5.1,-19.9,5.73,1.91,-14.9,25.4
2015-04-27 01:15:00,0.0,1.92644,0.00034,404.916,0.023,0.1687,0.0013,140.002,45.001,34117.31663,1.92968,405.741,32.530,45.068,45.000,0.00,0.09,-272.72,-272.77,-3,969,-1,21.3,4.9,-20.1,20.9,5.1,-19.9,5.73,1.94,-14.9,25.3
2015-04-27 01:16:00,0.0,1.92635,0.00033,404.909,0.021,0.1684,0.0021,140.000,45.001,34117.42617,1.92953,405.731,32.558,45.068,45.000,0.00,0.09,-272.72,-272.78,-2,969,-1,21.3,4.9,-20.1,20.9,5.1,-19.9,5.73,1.99,-14.8,25.3
2015-04-27 01:17:00,0.0,1.92660,0.00033,404.904,0.030,0.1704,0.0018,139.999,45.001,34117.79908,1.92981,405.736,32.561,45.068,45.000,0.00,0.09,-272.72,-272.77,-2,969,-1,21.3,4.9,-20.1,20.9,5.1,-19.8,5.73,2.01,-14.8,25.3
2015-04-27 01:18:00,0.0,1.92637,0.00036,404.909,0.034,0.1682,0.0016,139.998,45.001,34119.65193,1.92958,405.730,32.563,45.068,45.000,0.00,0.09,-272.72,-272.77,-2,968,-1,21.3,4.9,-20.1,20.9,5.1,-19.9,5.73,1.99,-14.8,25.3
2015-04-27 01:19:00,0.0,1.92619,0.00028,404.927,0.032,0.1679,0.0022,139.997,45.001,34121.64623,1.92941,405.749,32.579,45.069,45.000,0.00,0.09,-272.72,-272.78,-2,967,-1,21.3,4.9,-20.2,21.0,5.1,-19.9,5.73,1.94,-14.8,25.4
2015-04-27 01:20:00,0.0,1.92621,0.00026,404.928,0.030,0.1672,0.0022,139.997,45.000,34122.55151,1.92938,405.746,32.620,45.069,45.000,0.00,0.09,-272.72,-272.78,-2,967,-1,21.4,4.8,-20.2,21.0,5.0,-20.0,5.73,1.92,-14.9,25.4
2015-04-27 01:21:00,0.0,1.92672,0.00036,404.912,0.035,0.1663,0.0017,140.000,45.000,34121.41629,1.92987,405.725,32.625,45.069,45.000,0.00,0.09,-272.71,-272.77,-2,968,-2,21.4,4.8,-20.2,21.0,5.0,-20.0,5.73,1.93,-14.8,25.4
2015-04-27 01:22:00,0.0,1.92675,0.00042,404.914,0.025,0.1685,0.0018,140.002,45.000,34120.46295,1.92994,405.736,32.625,45.069,45.000,0.00,0.09,-272.72,-272.78,-3,968,-2,21.4,4.9,-20.1,21.0,5.1,-19.9,5.73,1.97,-14.8,25.5
2015-04-27 01:23:00,0.0,1.92642,0.00027,404.922,0.024,0.1675,0.0022,140.000,45.000,34123.69217,1.92964,405.741,32.616,45.069,45.000,0.00,0.09,-272.72,-272.77,-3,969,-2,21.4,4.8,-20.2,21.0,5.1,-19.9,5.73,1.98,-14.8,25.5
2015-04-27 01:24:00,0.0,1.92652,0.00038,404.923,0.024,0.1680,0.0014,139.998,45.000,34123.94751,1.92972,405.744,32.576,45.068,45.000,0.00,0.09,-272.72,-272.77,-2,969,-2,21.5,4.8,-20.1,21.1,5.0,-20.0,5.73,1.99,-14.8,25.6
2015-04-27 01:25:00,0.0,1.92634,0.00041,404.899,0.028,0.1681,0.0018,140.000,45.000,34127.61279,1.92955,405.719,32.546,45.069,45.000,0.00,0.09,-272.72,-272.78,-3,970,-2,21.5,4.8,-20.1,21.1,5.1,-19.9,5.73,1.97,-14.8,25.6
2015-04-27 01:26:00,0.0,1.92606,0.00042,404.909,0.032,0.1677,0.0023,139.996,45.000,34127.57814,1.92924,405.730,32.468,45.068,45.000,0.00,0.09,-272.72,-272.78,-3,971,-2,21.5,4.8,-20.1,21.1,5.0,-19.9,5.73,1.96,-14.8,25.6
2015-04-27 01:27:00,0.0,1.92632,0.00029,404.944,0.027,0.1675,0.0016,140.001,44.999,34129.20616,1.92952,405.762,32.395,45.068,45.000,0.00,0.09,-272.72,-272.77,-3,972,-2,21.5,4.8,-20.2,21.1,5.0,-19.9,5.73,1.96,-14.8,25.7
2015-04-27 01:28:00,0.0,1.92631,0.00044,404.942,0.030,0.1662,0.0018,140.000,44.999,34128.72780,1.92944,405.754,32.310,45.069,45.000,0.00,0.09,-272.72,-272.77,-3,972,-2,21.5,4.8,-20.2,21.1,5.0,-20.0,5.73,1.96,-14.8,25.8
2015-04-27 01:29:00,0.0,1.92641,0.00037,404.936,0.032,0.1660,0.0018,140.003,44.999,34131.16680,1.92959,405.749,32.250,45.069,45.000,0.00,0.09,-272.72,-272.78,-3,972,-2,21.5,4.8,-20.2,21.1,5.0,-20.0,5.73,1.96,-14.8,25.9
2015-04-27 01:30:00,0.0,1.92665,0.00037,404.926,0.030,0.1664,0.0018,139.998,44.999,34129.46594,1.92980,405.739,32.199,45.069,45.001,0.00,0.09,-272.72,-272.78,-3,972,-2,21.5,4.8,-20.2,21.1,5.0,-20.0,5.73,1.96,-14.7,25.8
2015-04-27 01:31:00,0.0,1.92637,0.00035,404.921,0.038,0.1669,0.0018,140.003,44.999,34130.07712,1.92955,405.736,32.169,45.069,45.001,0.00,0.09,-272.72,-272.77,-4,973,-2,21.5,4.8,-20.2,21.1,5.0,-20.0,5.73,1.96,-14.8,25.8
2015-04-27 01:32:00,0.0,1.92668,0.00031,404.927,0.036,0.1671,0.0018,140.003,44.999,34129.72217,1.92982,405.744,32.119,45.069,45.000,0.00,0.09,-272.72,-272.78,-4,974,-2,21.5,4.8,-20.2,21.1,5.0,-20.0,5.73,1.96,-14.7,25.8
2015-04-27 01:33:00,0.0,1.92667,0.00047,404.933,0.033,0.1687,0.0014,139.999,44.999,34128.23635,1.92988,405.756,32.081,45.069,45.001,0.00,0.09,-272.72,-272.78,-4,974,-2,21.5,4.9,-20.1,21.1,5.0,-19.9,5.73,1.96,-14.7,25.8
2015-04-27 01:34:00,0.0,1.92651,0.00034,404.888,0.034,0.1669,0.0016,139.999,44.999,34129.60023,1.92973,405.704,32.059,45.069,45.000,0.00,0.09,-272.71,-272.77,-3,974,-2,21.5,4.8,-20.1,21.1,5.0,-19.9,5.73,1.95,-14.7,25.8
2015-04-27 01:35:00,0.0,1.92609,0.00034,404.939,0.037,0.1667,0.0015,139.999,45.000,34130.18699,1.92927,405.753,32.025,45.069,45.000,0.00,0.09,-272.71,-272.77,-4,974,-2,21.5,4.8,-20.2,21.1,5.0,-20.0,5.73,1.95,-14.7,25.8
2015-04-27 01:36:00,0.0,1.92626,0.00039,404.963,0.039,0.1645,0.0021,139.999,45.000,34126.85620,1.92937,405.768,31.989,45.069,45.000,0.00,0.09,-272.72,-272.78,-3,974,-2,21.5,4.8,-20.3,21.1,5.0,-20.1,5.73,1.95,-14.7,25.8
2015-04-27 01:37:00,0.0,1.92644,0.00035,404.960,0.030,0.1627,0.0018,139.998,45.000,34126.74993,1.92955,405.756,31.951,45.068,45.000,0.00,0.09,-272.72,-272.77,-3,975,-2,21.5,4.7,-20.5,21.1,4.9,-20.2,5.73,1.95,-14.7,25.8
2015-04-27 01:38:00,0.0,1.92622,0.00038,404.941,0.028,0.1627,0.0016,140.001,45.000,34129.58267,1.92930,405.737,31.943,45.069,45.000,0.00,0.09,-272.72,-272.78,-4,974,-2,21.5,4.7,-20.5,21.1,4.9,-20.2,5.73,1.95,-14.7,25.8
2015-04-27 01:39:00,0.0,1.92635,0.00042,404.963,0.033,0.1610,0.0017,140.000,45.000,34128.15320,1.92943,405.749,31.938,45.069,45.000,0.00,0.09,-272.72,-272.78,-4,975,-2,21.5,4.7,-20.6,21.1,4.9,-20.3,5.73,1.96,-14.7,25.8
2015-04-27 01:40:00,0.0,1.92624,0.00055,404.959,0.030,0.1611,0.0017,140.000,44.999,34129.10206,1.92932,405.746,31.924,45.069,45.000,0.00,0.09,-272.72,-272.78,-4,975,-2,21.5,4.7,-20.6,21.1,4.9,-20.3,5.73,1.95,-14.7,25.8
2015-04-27 01:41:00,0.0,1.92611,0.00041,404.954,0.039,0.1611,0.0018,140.001,45.000,34128.76359,1.92914,405.741,31.891,45.068,45.000,0.00,0.09,-272.72,-272.78,-4,975,-2,21.5,4.7,-20.5,21.1,4.9,-20.3,5.73,1.96,-14.7,25.8
2015-04-27 01:42:00,0.0,1.92633,0.00039,404.957,0.036,0.1615,0.0023,140.001,45.000,34127.53638,1.92941,405.745,31.899,45.069,45.000,0.00,0.09,-272.72,-272.78,-4,975,-2,21.4,4.7,-20.6,21.1,4.9,-20.3,5.73,1.95,-14.7,25.6
2015-04-27 01:43:00,0.0,1.92615,0.00032,404.982,0.042,0.1607,0.0021,140.001,45.000,34128.55782,1.92923,405.769,31.939,45.069,45.000,0.00,0.09,-272.72,-272.77,-4,974,-2,21.4,4.6,-20.6,21.1,4.8,-20.4,5.73,1.96,-14.7,25.5
2015-04-27 01:44:00,0.0,1.92639,0.00053,404.966,0.023,0.1623,0.0017,139.999,45.000,34127.24158,1.92944,405.760,31.994,45.069,45.000,0.00,0.09,-272.72,-272.77,-3,973,-2,21.4,4.7,-20.5,21.1,4.9,-20.3,5.73,1.97,-14.7,25.4
2015-04-27 01:45:00,0.0,1.92624,0.00035,404.992,0.028,0.1603,0.0015,140.002,45.001,34126.65493,1.92930,405.774,32.062,45.069,45.000,0.00,0.09,-272.72,-272.77,-4,974,-2,21.4,4.6,-20.7,21.1,4.9,-20.4,5.73,1.98,-14.7,25.4
2015-04-27 01:46:00,0.0,1.92649,0.00034,405.005,0.027,0.1577,0.0017,140.001,45.001,34124.31422,1.92951,405.775,32.134,45.068,45.000,0.00,0.09,-272.72,-272.78,-3,973,-2,21.4,4.6,-20.8,21.1,4.8,-20.5,5.73,1.99,-14.7,25.4